TVF82DG LFPO-LIRF

Flight info

Callsign TVF82DG
Flight time N/A
Altitude 37000
Route OKASI DCT OKEKO DCT MOU DCT MADIV DCT MOKIP DCT TUFTA DCT KOGAS DCT MEDAM DCT NITAM DCT MOGBO DCT ELB/N0440F380 DCT ELKAP
Aircraft A320/M-SDE3FGHIRWY/LB1

Departure

Time 2026-05-05 16:49
Airport Paris-Orly Airport (LFPO)

Arrival

Time N/A
Airport Rome–Fiumicino Leonardo da Vinci International Airport (LIRF)
Time Latitude Longitude Altitude Speed Heading
2026-05-05 16:19 48.72582 2.35879 300 ft 0 kts 26°
2026-05-05 16:34 48.72575 2.35873 300 ft 2 kts 27°
2026-05-05 16:35 48.72560 2.35862 300 ft 2 kts 27°
2026-05-05 16:35 48.72546 2.35851 297 ft 2 kts 27°
2026-05-05 16:35 48.72532 2.35840 300 ft 2 kts 27°
2026-05-05 16:35 48.72517 2.35829 300 ft 2 kts 27°
2026-05-05 16:36 48.72502 2.35818 301 ft 2 kts 38°
2026-05-05 16:36 48.72491 2.35799 301 ft 2 kts 74°
2026-05-05 16:36 48.72489 2.35789 301 ft 0 kts 89°
2026-05-05 16:38 48.72489 2.35795 294 ft 3 kts 90°
2026-05-05 16:38 48.72481 2.35870 294 ft 11 kts 99°
2026-05-05 16:38 48.72476 2.36021 299 ft 15 kts 84°
2026-05-05 16:39 48.72493 2.36174 298 ft 13 kts 96°
2026-05-05 16:39 48.72439 2.36241 298 ft 8 kts 162°
2026-05-05 16:39 48.72396 2.36261 298 ft 4 kts 162°
2026-05-05 16:39 48.72349 2.36283 297 ft 12 kts 163°
2026-05-05 16:40 48.72284 2.36335 300 ft 9 kts 140°
2026-05-05 16:40 48.72240 2.36419 298 ft 13 kts 121°
2026-05-05 16:40 48.72217 2.36465 297 ft 0 kts 74°
2026-05-05 16:40 48.72225 2.36466 298 ft 1 kts
2026-05-05 16:41 48.72227 2.36461 296 ft 1 kts 326°
2026-05-05 16:41 48.72264 2.36362 297 ft 19 kts 301°
2026-05-05 16:41 48.72399 2.36235 297 ft 16 kts 311°
2026-05-05 16:41 48.72404 2.36134 295 ft 14 kts 254°
2026-05-05 16:42 48.72373 2.35964 298 ft 19 kts 253°
2026-05-05 16:42 48.72339 2.35787 298 ft 16 kts 256°
2026-05-05 16:42 48.72312 2.35633 298 ft 17 kts 255°
2026-05-05 16:42 48.72280 2.35464 295 ft 15 kts 255°
2026-05-05 16:43 48.72256 2.35332 297 ft 12 kts 258°
2026-05-05 16:43 48.72263 2.35195 297 ft 15 kts 289°
2026-05-05 16:43 48.72307 2.35047 297 ft 15 kts 294°
2026-05-05 16:43 48.72354 2.34879 296 ft 21 kts 293°
2026-05-05 16:44 48.72422 2.34647 296 ft 25 kts 293°
2026-05-05 16:44 48.72488 2.34416 295 ft 23 kts 295°
2026-05-05 16:44 48.72552 2.34200 296 ft 22 kts 290°
2026-05-05 16:44 48.72538 2.33995 296 ft 19 kts 243°
2026-05-05 16:45 48.72470 2.33805 295 ft 26 kts 242°
2026-05-05 16:45 48.72387 2.33567 298 ft 25 kts 242°
2026-05-05 16:45 48.72305 2.33338 298 ft 24 kts 242°
2026-05-05 16:45 48.72232 2.33125 296 ft 22 kts 242°
2026-05-05 16:46 48.72163 2.32932 296 ft 19 kts 243°
2026-05-05 16:46 48.72105 2.32773 299 ft 15 kts 240°
2026-05-05 16:46 48.72060 2.32650 297 ft 15 kts 242°
2026-05-05 16:46 48.71988 2.32439 298 ft 29 kts 243°
2026-05-05 16:47 48.71893 2.32168 298 ft 26 kts 242°
2026-05-05 16:47 48.71826 2.31976 295 ft 19 kts 248°
2026-05-05 16:47 48.71830 2.31812 297 ft 15 kts 297°
2026-05-05 16:47 48.71912 2.31720 297 ft 19 kts 348°
2026-05-05 16:48 48.72024 2.31772 297 ft 16 kts 51°
2026-05-05 16:48 48.72076 2.31903 295 ft 12 kts 62°
2026-05-05 16:48 48.72111 2.32008 294 ft 15 kts 62°
2026-05-05 16:48 48.72284 2.32489 298 ft 87 kts 62°
2026-05-05 16:49 48.72672 2.33570 299 ft 144 kts 62°
2026-05-05 16:49 48.73220 2.35098 414 ft 178 kts 58°
2026-05-05 16:49 48.73754 2.36735 1169 ft 170 kts 63°
2026-05-05 16:49 48.74248 2.38393 1830 ft 176 kts 65°
2026-05-05 16:50 48.74749 2.40175 2055 ft 198 kts 65°
2026-05-05 16:50 48.75431 2.42186 1965 ft 231 kts 61°
2026-05-05 16:50 48.75936 2.44668 2357 ft 257 kts 83°
2026-05-05 16:50 48.75965 2.47381 3378 ft 258 kts 92°
2026-05-05 16:51 48.75822 2.50112 4380 ft 262 kts 95°
2026-05-05 16:51 48.75629 2.52875 5328 ft 266 kts 96°
2026-05-05 16:51 48.75387 2.55666 6274 ft 269 kts 104°
2026-05-05 16:51 48.74449 2.58087 7170 ft 272 kts 138°
2026-05-05 16:52 48.72794 2.59517 8048 ft 278 kts 158°
2026-05-05 16:52 48.70929 2.60388 8904 ft 284 kts 165°
2026-05-05 16:52 48.68993 2.61072 9791 ft 288 kts 167°
2026-05-05 16:52 48.66980 2.61578 10380 ft 301 kts 176°
2026-05-05 16:53 48.64830 2.61511 10837 ft 319 kts 185°
2026-05-05 16:53 48.62582 2.60927 11272 ft 336 kts 194°
2026-05-05 16:53 48.60321 2.59744 11668 ft 353 kts 204°
2026-05-05 16:53 48.58076 2.58058 12113 ft 366 kts 206°
2026-05-05 16:54 48.55792 2.56309 12780 ft 370 kts 206°
2026-05-05 16:54 48.53482 2.54530 13518 ft 374 kts 206°
2026-05-05 16:54 48.51153 2.52733 14213 ft 378 kts 206°
2026-05-05 16:54 48.48801 2.50918 14932 ft 381 kts 207°
2026-05-05 16:55 48.46426 2.49134 15653 ft 383 kts 203°
2026-05-05 16:55 48.43900 2.47807 16352 ft 385 kts 197°
2026-05-05 16:55 48.41326 2.46650 17004 ft 388 kts 197°
2026-05-05 16:55 48.38730 2.45479 17650 ft 390 kts 197°
2026-05-05 16:56 48.36118 2.44296 18281 ft 393 kts 197°
2026-05-05 16:56 48.33492 2.43098 18839 ft 395 kts 197°
2026-05-05 16:56 48.30800 2.42229 19386 ft 399 kts 187°
2026-05-05 16:56 48.28015 2.42109 19930 ft 402 kts 177°
2026-05-05 16:57 48.25247 2.42779 20460 ft 406 kts 166°
2026-05-05 16:57 48.22558 2.44134 20968 ft 409 kts 161°
2026-05-05 16:57 48.19867 2.45589 21477 ft 412 kts 162°
2026-05-05 16:57 48.17159 2.47028 22003 ft 414 kts 162°
2026-05-05 16:58 48.14436 2.48460 22496 ft 416 kts 162°
2026-05-05 16:58 48.11697 2.49890 22957 ft 418 kts 162°
2026-05-05 16:58 48.08943 2.51330 23394 ft 420 kts 162°
2026-05-05 16:58 48.06170 2.52768 23763 ft 422 kts 163°
2026-05-05 16:59 48.03381 2.54169 24132 ft 424 kts 164°
2026-05-05 16:59 48.00576 2.55544 24497 ft 425 kts 164°
2026-05-05 16:59 47.97756 2.56916 24855 ft 427 kts 164°
2026-05-05 16:59 47.94930 2.58291 25201 ft 428 kts 164°
2026-05-05 17:00 47.92090 2.59674 25549 ft 429 kts 164°
2026-05-05 17:00 47.89247 2.61063 25883 ft 431 kts 164°
2026-05-05 17:00 47.86394 2.62458 26209 ft 432 kts 164°
2026-05-05 17:00 47.83536 2.63856 26517 ft 433 kts 165°
2026-05-05 17:01 47.80671 2.65255 26845 ft 434 kts 165°
2026-05-05 17:01 47.77792 2.66662 27141 ft 435 kts 165°
2026-05-05 17:01 47.74918 2.68068 27430 ft 436 kts 165°
2026-05-05 17:01 47.72033 2.69480 27709 ft 437 kts 165°
2026-05-05 17:02 47.69142 2.70895 27985 ft 438 kts 165°
2026-05-05 17:02 47.66244 2.72309 28233 ft 438 kts 165°
2026-05-05 17:02 47.63344 2.73717 28509 ft 438 kts 165°
2026-05-05 17:02 47.60452 2.75118 28833 ft 436 kts 165°
2026-05-05 17:03 47.57568 2.76513 29186 ft 434 kts 165°
2026-05-05 17:03 47.54700 2.77896 29524 ft 433 kts 165°
2026-05-05 17:03 47.51836 2.79276 29880 ft 431 kts 165°
2026-05-05 17:03 47.48984 2.80652 30175 ft 430 kts 165°
2026-05-05 17:04 47.46141 2.82027 30436 ft 430 kts 165°
2026-05-05 17:04 47.43302 2.83403 30697 ft 429 kts 165°
2026-05-05 17:04 47.40468 2.84774 30961 ft 429 kts 165°
2026-05-05 17:04 47.37637 2.86138 31228 ft 428 kts 165°
2026-05-05 17:05 47.34803 2.87497 31487 ft 428 kts 165°
2026-05-05 17:05 47.31976 2.88851 31750 ft 427 kts 165°
2026-05-05 17:05 47.29149 2.90204 32018 ft 427 kts 165°
2026-05-05 17:05 47.26333 2.91551 32290 ft 426 kts 165°
2026-05-05 17:06 47.23506 2.92899 32541 ft 426 kts 165°
2026-05-05 17:06 47.20693 2.94241 32793 ft 425 kts 165°
2026-05-05 17:06 47.17882 2.95583 33068 ft 425 kts 165°
2026-05-05 17:06 47.15072 2.96925 33349 ft 424 kts 165°
2026-05-05 17:07 47.12266 2.98263 33601 ft 424 kts 165°
2026-05-05 17:07 47.09451 2.99554 33858 ft 423 kts 166°
2026-05-05 17:07 47.06632 3.00753 34085 ft 422 kts 167°
2026-05-05 17:07 47.03797 3.01901 34286 ft 422 kts 168°
2026-05-05 17:08 47.00960 3.03025 34485 ft 423 kts 168°
2026-05-05 17:08 46.98119 3.04146 34662 ft 424 kts 168°
2026-05-05 17:08 46.95272 3.05281 34845 ft 424 kts 167°
2026-05-05 17:08 46.92424 3.06435 35031 ft 425 kts 167°
2026-05-05 17:09 46.89578 3.07605 35199 ft 425 kts 167°
2026-05-05 17:09 46.86728 3.08779 35369 ft 426 kts 167°
2026-05-05 17:09 46.83869 3.09956 35535 ft 426 kts 167°
2026-05-05 17:09 46.81011 3.11128 35691 ft 427 kts 167°
2026-05-05 17:10 46.78157 3.12297 35848 ft 428 kts 168°
2026-05-05 17:10 46.75281 3.13474 36015 ft 428 kts 168°
2026-05-05 17:10 46.72413 3.14643 36159 ft 429 kts 168°
2026-05-05 17:10 46.69536 3.15811 36289 ft 430 kts 168°
2026-05-05 17:11 46.66657 3.16979 36419 ft 430 kts 168°
2026-05-05 17:11 46.63771 3.18150 36546 ft 431 kts 168°
2026-05-05 17:11 46.60878 3.19324 36674 ft 431 kts 168°
2026-05-05 17:11 46.57990 3.20492 36831 ft 432 kts 168°
2026-05-05 17:12 46.52175 3.22842 36865 ft 434 kts 168°
2026-05-05 17:12 46.46357 3.25192 36876 ft 434 kts 168°
2026-05-05 17:13 46.40535 3.27537 36875 ft 434 kts 168°
2026-05-05 17:13 46.34714 3.29875 36880 ft 434 kts 168°
2026-05-05 17:14 46.28893 3.32197 36886 ft 434 kts 168°
2026-05-05 17:14 46.23078 3.34521 36895 ft 433 kts 168°
2026-05-05 17:15 46.17270 3.36846 36890 ft 433 kts 168°
2026-05-05 17:15 46.11462 3.39159 36895 ft 433 kts 168°
2026-05-05 17:16 46.05658 3.41459 36892 ft 432 kts 168°
2026-05-05 17:16 45.99814 3.43774 36889 ft 432 kts 168°
2026-05-05 17:17 45.94053 3.46054 36884 ft 432 kts 168°
2026-05-05 17:17 45.88254 3.48380 36888 ft 434 kts 165°
2026-05-05 17:18 45.82856 3.52366 36875 ft 442 kts 151°
2026-05-05 17:18 45.77719 3.57230 36878 ft 442 kts 151°
2026-05-05 17:19 45.73412 3.61284 36875 ft 442 kts 151°
2026-05-05 17:19 45.68272 3.66109 36880 ft 442 kts 151°
2026-05-05 17:20 45.63134 3.70923 36879 ft 442 kts 152°
2026-05-05 17:20 45.57995 3.75731 36884 ft 442 kts 152°
2026-05-05 17:21 45.52845 3.80538 36888 ft 442 kts 152°
2026-05-05 17:22 45.45117 3.87734 36891 ft 442 kts 152°
2026-05-05 17:22 45.39957 3.92510 36880 ft 442 kts 152°
2026-05-05 17:23 45.35213 3.98179 36870 ft 454 kts 135°